FW0041 Weather Reports


Display with metric or nautical units.
time (UTC)temp
F
wind
direction
speed
MPH
gust
MPH
rain 1hr
in
rain 24hr
in
rain mn
in
humidity
%
barometer
mb
20260510163030 80 183 1.0 5.0 0.00 1.68 0.01 89 1014.5
20260510161600 78 178 1.0 3.0 0.00 1.68 0.01 89 1014.7
20260510160113 78 118 0.0 3.0 0.00 1.68 0.01 88 1014.8
20260510154519 77 118 1.0 3.0 0.00 1.68 0.01 88 1015.0
20260510153037 76 81 1.0 3.0 0.00 1.68 0.01 88 1015.2
20260510151557 75 81 0.0 2.0 0.00 1.68 0.01 88 1015.1
20260510150015 75 80 0.0 2.0 0.00 1.68 0.01 88 1015.2
20260510144545 75 80 0.0 0.0 0.00 1.68 0.01 88 1015.1
20260510143003 74 80 0.0 3.0 0.00 1.68 0.01 88 1015.1
20260510141534 74 80 0.0 0.0 0.00 1.68 0.01 89 1015.3
20260510140046 74 80 0.0 2.0 0.00 1.68 0.01 89 1015.3
20260510134511 73 82 0.0 2.0 0.00 1.68 0.01 89 1015.3
20260510133033 73 97 0.0 1.0 0.00 1.68 0.01 89 1015.3
20260510131544 73 97 0.0 3.0 0.00 1.68 0.01 89 1015.1
20260510130016 72 97 0.0 1.0 0.00 1.68 0.01 89 1014.8
20260510124528 72 97 0.0 1.0 0.00 1.68 0.01 89 1014.3
20260510123059 72 97 0.0 0.0 0.00 1.68 0.01 89 1014.1
20260510121508 72 97 0.0 0.0 0.00 1.68 0.01 89 1013.7
20260510120031 71 97 0.0 0.0 0.00 1.68 0.01 89 1013.5
20260510114548 71 97 0.0 0.0 0.00 1.68 0.01 89 1013.4
20260510113015 71 97 0.0 0.0 0.00 1.68 0.01 89 1013.1
20260510111539 71 97 0.0 0.0 0.00 1.68 0.01 89 1013.0
20260510110100 71 97 0.0 0.0 0.00 1.68 0.01 89 1012.4
20260510104517 71 97 0.0 0.0 0.00 1.68 0.01 89 1012.0
20260510103034 71 97 0.0 0.0 0.00 1.68 0.01 89 1011.7
20260510101551 71 97 0.0 0.0 0.00 1.68 0.01 89 1011.5
20260510100018 71 97 0.0 0.0 0.00 1.68 0.01 89 1011.4
20260510094542 71 97 0.0 0.0 0.00 1.68 0.01 89 1011.2
20260510093006 70 97 0.0 0.0 0.00 1.68 0.01 89 1011.2
20260510091540 70 97 0.0 0.0 0.01 1.68 0.01 89 1011.0
20260510090056 70 97 0.0 0.0 0.01 1.68 0.01 89 1010.9
20260510084518 70 97 0.0 0.0 0.01 1.68 0.01 89 1010.8
20260510083044 70 97 0.0 0.0 0.01 1.68 0.01 89 1011.0
20260510081623 70 97 0.0 0.0 0.00 1.67 0.00 90 1011.2
20260510080015 70 97 0.0 0.0 0.00 1.67 0.00 90 1011.3
20260510074534 70 97 0.0 0.0 0.00 1.67 0.00 90 1011.3
20260510073101 70 97 0.0 0.0 0.00 1.67 0.00 90 1011.1
20260510071518 70 97 0.0 0.0 0.00 1.67 0.00 90 1011.1
20260510070037 70 97 0.0 0.0 0.00 1.67 0.00 90 1011.1
20260510064602 70 97 0.0 0.0 0.00 1.67 0.00 90 1011.2
20260510063036 70 97 0.0 0.0 0.00 1.67 0.00 90 1011.3
20260510061556 70 97 0.0 0.0 0.00 1.67 0.00 90 1011.5
20260510060040 70 97 0.0 0.0 0.00 1.67 0.00 89 1011.7
20260510054546 70 97 0.0 0.0 0.00 1.67 0.00 89 1011.6
20260510053013 70 97 0.0 0.0 0.00 1.67 0.00 90 1011.7
20260510051534 70 97 0.0 0.0 0.00 1.67 0.00 89 1011.8
20260510050112 70 97 0.0 0.0 0.00 1.67 0.00 89 1011.7
20260510044607 70 97 0.0 0.0 0.00 1.67 1.67 89 1011.9
20260510044500 70 97 0.0 0.0 0.00 1.67 1.67 89 1011.8
20260510043037 70 97 0.0 0.0 0.00 1.67 1.67 89 1011.9
20260510041551 70 97 0.0 0.0 0.00 1.67 1.67 89 1011.9